37.08339, -88.60005

Hourly Observations for April 16, 2018

Temp ( °F °C ) Dew Point ( °F °C ) Humidity (%) Winds ( mph kmh ) Pressure ( in mb ) Visibility ( mi km ) Precip ( " mm )
12:10 am 00:10 Mostly Cloudy with Fog 52 11 51 11 97 WNW 3 6 29.91 1013 1 1 0.00 0.00
12:36 am 00:36 Mostly Cloudy with Mist and Fog 53 12 51 11 93 WNW 3 6 29.91 1013 1 2 0.00 0.00
12:44 am 00:44 Mostly Cloudy with Mist and Fog 53 12 52 11 96 Calm 29.91 1013 3 5 0.00 0.00
12:53 am 00:53 Mostly Cloudy with Mist and Fog 53 12 52 11 96 Calm 29.88 1012 3 4 0.00 0.00
1:05 am 01:05 Cloudy with Mist and Fog 54 12 53 12 97 Calm 29.91 1013 4 6 0.00 0.00
1:53 am 01:53 Cloudy with Mist and Fog 54 12 53 12 97 Calm 29.88 1012 5 8 0.00 0.00
2:53 am 02:53 Cloudy with Mist and Fog 55 13 54 12 96 N 3 6 29.88 1012 6 10 0.00 0.00
3:03 am 03:03 Cloudy with Mist and Fog 55 13 54 12 96 Calm 29.91 1013 6 10 0.00 0.00
3:53 am 03:53 Cloudy with Mist and Fog 55 13 53 12 93 Calm 29.88 1012 5 8 0.00 0.00
4:17 am 04:17 Cloudy with Mist and Fog 55 13 53 12 93 NW 3 6 29.91 1013 5 8 0.00 0.00
4:40 am 04:40 Cloudy with Mist and Fog 55 13 54 12 96 Calm 29.91 1013 5 8 0.00 0.00
4:53 am 04:53 Cloudy with Mist and Fog 55 13 53 12 93 Calm 29.88 1012 6 10 0.00 0.00
5:53 am 05:53 Cloudy with Mist and Fog 55 13 54 12 96 WNW 3 6 29.91 1013 6 10 0.00 0.00
6:26 am 06:26 Cloudy with Mist and Fog 55 13 54 12 96 NNW 3 6 29.91 1013 4 6 0.00 0.00
6:51 am 06:51 Cloudy with Mist and Fog 55 13 54 12 94 NNW 3 6 29.94 1014 3 5 0.00 0.00
6:53 am 06:53 Cloudy with Mist and Fog 56 13 55 13 97 NNW 5 7 29.91 1013 3 5 0.00 0.00
7:53 am 07:53 Cloudy with Mist and Fog 57 14 55 13 93 NNW 6 9 29.91 1013 5 8 0.00 0.00
8:25 am 08:25 Cloudy with Mist and Fog 58 14 55 13 90 NNW 6 9 29.94 1014 5 8 0.00 0.00
8:53 am 08:53 Cloudy with Mist and Fog 58 14 55 13 90 NNW 7 11 29.94 1014 5 8 0.00 0.00
9:53 am 09:53 Cloudy 60 16 56 13 86 NNW 7 11 29.94 1014 7 11 0.00 0.00
10:14 am 10:14 Cloudy 61 16 56 13 84 NNW 7 11 29.97 1015 9 14 0.00 0.00
10:35 am 10:35 Cloudy 62 17 56 13 80 NW 8 13 29.97 1015 10 16 0.00 0.00
10:49 am 10:49 Cloudy 64 18 57 14 78 NNW 8 13 29.97 1015 10 16 0.00 0.00
10:53 am 10:53 Cloudy 62 17 56 13 80 NW 7 11 29.94 1014 10 16 0.00 0.00
11:53 am 11:53 Cloudy 63 17 56 13 78 NNW 9 15 29.94 1014 10 16 0.00 0.00
12:06 pm 12:06 Cloudy 63 17 55 13 76 NW 9 15 29.97 1015 10 16 0.00 0.00
12:34 pm 12:34 Cloudy 63 17 56 13 78 NW 9 15 29.94 1014 9 14 0.00 0.00
12:44 pm 12:44 Cloudy 64 18 57 14 78 NW 9 15 29.94 1014 9 14 0.00 0.00
12:53 pm 12:53 Cloudy 64 18 57 14 78 NNW 14 22 29.94 1014 9 14 0.00 0.00
12:59 pm 12:59 Cloudy 63 17 56 13 78 NW 8 13 29.94 1014 9 14 0.00 0.00
1:28 pm 13:28 Cloudy 62 17 56 13 80 NW 8 13 29.94 1014 10 16 0.00 0.00
1:36 pm 13:36 Cloudy 62 17 55 13 78 NW 9 15 29.94 1014 10 16 0.00 0.00
1:53 pm 13:53 Cloudy 62 17 56 13 80 NNW 12 19 29.94 1014 10 16 0.00 0.00
2:20 pm 14:20 Cloudy 63 17 56 13 78 NW 10 17 29.94 1014 10 16 0.00 0.00
2:34 pm 14:34 Cloudy 62 17 55 13 78 NW 10 17 29.94 1014 10 16 0.00 0.00
2:53 pm 14:53 Cloudy 62 17 55 13 78 NNW 9 15 29.91 1013 10 16 0.00 0.00
3:08 pm 15:08 Cloudy 64 18 56 13 75 NW 7 11 29.94 1014 10 16 0.00 0.00
3:53 pm 15:53 Mostly Cloudy 65 18 56 13 73 WNW 9 15 29.91 1013 10 16 0.00 0.00
4:02 pm 16:02 Cloudy 63 17 55 13 76 WNW 8 13 29.94 1014 10 16 0.00 0.00
4:13 pm 16:13 Cloudy 64 18 55 13 73 W 8 13 29.94 1014 10 16 0.00 0.00
4:53 pm 16:53 Cloudy 64 18 55 13 73 WNW 10 17 29.91 1013 10 16 0.00 0.00
5:53 pm 17:53 Cloudy 62 17 55 13 78 NW 7 11 29.94 1014 10 16 0.00 0.00
6:53 pm 18:53 Mostly Cloudy 63 17 54 12 73 NNW 10 17 29.94 1014 10 16 0.00 0.00
7:53 pm 19:53 Cloudy 62 17 52 11 70 NNW 6 9 29.94 1014 10 16 0.00 0.00
8:53 pm 20:53 Cloudy 61 16 53 12 75 WNW 5 7 29.97 1015 10 16 0.00 0.00
9:53 pm 21:53 Mostly Cloudy 60 16 53 12 78 Calm 29.97 1015 10 16 0.00 0.00
10:53 pm 22:53 Clear 56 13 53 12 90 Calm 29.97 1015 10 16 0.00 0.00
11:53 pm 23:53 Clear 54 12 52 11 93 W 5 7 29.97 1015 9 14 0.00 0.00
Site Deisgn Provided by Innovations Branding House, Paducah, KY